map of ALA home
Great Circle Mapper logo
ALA - Airport
Location
City:  Almaty, Alma Ata, Kazakhstan
Name:Almaty International Airport
ICAO / IATA:UAAA / ALA

Details
Type:Airport (Aerodrome, Airfield)
Use:Public/Civil, International (customs port of entry)
Latitude:4321'19"N (43.355278)
Longitude:7702'41"E (77.044722)
Elevation:2233 ft (681 m)
Variation:5.05E (WMM2015 magnetic declination)
0.04 annual change
Runways:2
Longest:14764 × 148 ft (4500 × 45 m), paved

Time
Time Zone:UTC+6
Local Time:

Weather
METAR:UAAA 071230Z 06003MPS 030V090 9999 FEW050 29/06 Q1006 R88/CLRD65 NOSIG
TAF:UAAA 071100Z 0712/0812 16005MPS 9999 NSC TX30/0809Z TN14/0801Z
BECMG 0804/0805 04006MPS SCT050CB BKN100

Related Locations
Nearby:
Farthest:IPC: 11258 mi / 18117 km
Easter Island (Isla de Pascua, Rapa Nui) [Mataveri Intl], VS, CL

Find:

   beyond  
but within

Other Information
Maps:
NOTAMs:
Links:
Sources:

  
flag of Kazakhstan   

Sectional Chart

Flight Planning
at skyvector.com

Satellite Image

Google Maps Satellite view

 

Copyright © 2004-2015 Karl L. Swartz. All rights reserved.
The Great Circle Mapper name and logo are trademarks of the Great Circle Mapper.
All other trademarks mentioned herein belong to their respective owners.
Please see credits for attibutions and further copyright information.

  Follow gcmap on Facebook Follow gcmap on Twitter Follow gcmap on Google+

hCard Microformat

Geo Microformat